Arroyo Seco, NM

5:12 AM MST on February 06, 2016 (GMT -0700)
Taos Municipal

Weather History for KSKX - April, 2014

Change the Weather History Date:

Sunday, April 6, 2014

  Actual Average Record
Temperature  
Mean Temperature 39 °F -  
Max Temperature 48 °F 54 °F 68 °F (2002)
Min Temperature 30 °F 24 °F 14 °F (2009)
Degree Days  
Heating Degree Days 26    
Moisture  
Dew Point 28 °F    
Average Humidity 74    
Maximum Humidity 100    
Minimum Humidity 32    
Precipitation  
Precipitation 0.01 in - - ()
Sea Level Pressure  
Sea Level Pressure 29.96 in    
Wind  
Wind Speed 6 mph (NNW)    
Max Wind Speed 20 mph    
Max Gust Speed 26 mph    
Visibility 9 miles    
Events      
Averages and records for this station are not official NWS values.
T = Trace of Precipitation, MM = Missing Value Source: NWS Daily Summary

Daily Weather History Graph

Daily Weather History Graph

Search for Another Location

Airport or City:

Trip Planner

Search our weather history database for the weather conditions in past years. The results will help you decide how hot, cold, wet, or windy it might be!

Date:

Astronomy

Apr. 06, 2014 Rise Set
Actual Time 6:41 AM MDT 7:29 PM MDT
Civil Twilight 6:15 AM MDT 7:55 PM MDT
Nautical Twilight 5:44 AM MDT 8:26 PM MDT
Astronomical Twilight 5:12 AM MDT 8:58 PM MDT
Moon 11:50 AM MDT 1:21 AM MDT
Length of Visible Light 13h 40m
Length of Day
12h 47m
Waxing Crescent, 44% of the Moon is Illuminated
Apr 6
Waxing Crescent
Apr 7
First Quarter
Apr 15
Full
Apr 22
Last Quarter
Apr 29
New

Hourly Weather History & Observations

Time (MDT) Temp. Windchill Dew Point Humidity Pressure Visibility Wind Dir Wind Speed Gust Speed Precip Events Conditions
12:15 AM 32.0 °F - 28.4 °F 87% 29.97 in 10.0 mi Calm Calm - N/A   Overcast
12:35 AM 32.0 °F 27.5 °F 28.4 °F 87% 29.97 in 10.0 mi North 4.6 mph - N/A   Overcast
12:55 AM 32.0 °F - 28.4 °F 87% 29.97 in 10.0 mi Calm Calm - N/A   Overcast
1:15 AM 32.0 °F - 28.4 °F 87% 29.96 in 10.0 mi Calm Calm - N/A   Mostly Cloudy
1:35 AM 32.0 °F - 28.4 °F 87% 29.96 in 10.0 mi Calm Calm - N/A   Overcast
1:55 AM 32.0 °F - 28.4 °F 87% 29.96 in 10.0 mi Calm Calm - N/A   Overcast
2:15 AM 30.2 °F - 28.4 °F 93% 29.96 in 10.0 mi Calm Calm - N/A   Overcast
2:35 AM 30.2 °F - 28.4 °F 93% 29.96 in 10.0 mi Calm Calm - N/A   Overcast
2:55 AM 32.0 °F 26.4 °F 28.4 °F 87% 29.96 in 9.0 mi North 5.8 mph - N/A   Overcast
3:15 AM 32.0 °F 24.8 °F 28.4 °F 87% 29.96 in 5.0 mi North 8.1 mph - N/A   Overcast
3:35 AM 32.0 °F 25.6 °F 28.4 °F 87% 29.95 in 4.0 mi NNW 6.9 mph - N/A   Overcast
3:55 AM 32.0 °F 26.4 °F 30.2 °F 93% 29.95 in 1.8 mi NNW 5.8 mph - N/A   Overcast
4:15 AM 32.0 °F 28.7 °F 30.2 °F 93% 29.95 in 2.5 mi WNW 3.5 mph - N/A   Overcast
4:35 AM 32.0 °F 28.7 °F 30.2 °F 93% 29.95 in 4.0 mi West 3.5 mph - N/A   Overcast
4:55 AM 32.0 °F 26.4 °F 30.2 °F 93% 29.94 in 4.0 mi WSW 5.8 mph - N/A   Mostly Cloudy
5:15 AM 32.0 °F 27.5 °F 30.2 °F 93% 29.94 in 2.5 mi WSW 4.6 mph - N/A   Overcast
5:35 AM 32.0 °F 26.4 °F 30.2 °F 93% 29.94 in 1.8 mi West 5.8 mph - N/A   Overcast
5:55 AM 32.0 °F 24.2 °F 30.2 °F 93% 29.94 in 2.0 mi West 9.2 mph - N/A   Overcast
6:15 AM 32.0 °F 24.8 °F 30.2 °F 93% 29.94 in 2.5 mi WNW 8.1 mph - N/A   Overcast
6:35 AM 32.0 °F 25.6 °F 30.2 °F 93% 29.94 in 3.0 mi NW 6.9 mph - 0.01 in   Overcast
6:55 AM 30.2 °F 23.4 °F 30.2 °F 100% 29.94 in 5.0 mi WNW 6.9 mph - 0.01 in   Overcast
7:15 AM 32.0 °F 25.6 °F 28.4 °F 87% 29.95 in 6.0 mi NNW 6.9 mph - N/A   Overcast
7:35 AM 32.0 °F 25.6 °F 30.2 °F 93% 29.95 in 10.0 mi NNW 6.9 mph - N/A   Overcast
7:55 AM 32.0 °F 25.6 °F 30.2 °F 93% 29.96 in 10.0 mi NNW 6.9 mph - N/A   Overcast
8:15 AM 32.0 °F 25.6 °F 30.2 °F 93% 29.96 in 10.0 mi NW 6.9 mph - N/A   Overcast
8:35 AM 33.8 °F 27.0 °F 30.2 °F 87% 29.96 in 10.0 mi NW 8.1 mph - N/A   Partly Cloudy
8:55 AM 35.6 °F 29.2 °F 30.2 °F 81% 29.96 in 10.0 mi North 8.1 mph - N/A   Clear
9:15 AM 35.6 °F 28.6 °F 32.0 °F 87% 29.95 in 10.0 mi North 9.2 mph - N/A   Partly Cloudy
9:35 AM 37.4 °F 29.3 °F 33.8 °F 87% 29.96 in 10.0 mi North 12.7 mph - N/A   Scattered Clouds
9:55 AM 39.2 °F 31.2 °F 32.0 °F 75% 29.96 in 10.0 mi North 13.8 mph - N/A   Mostly Cloudy
10:15 AM 39.2 °F 30.8 °F 33.8 °F 81% 29.96 in 10.0 mi North 15.0 mph 19.6 mph N/A   Scattered Clouds
10:35 AM 41.0 °F 33.5 °F 30.2 °F 65% 29.96 in 10.0 mi North 13.8 mph 23.0 mph N/A   Scattered Clouds
10:55 AM 41.0 °F 33.1 °F 28.4 °F 61% 29.96 in 10.0 mi North 15.0 mph 20.7 mph N/A   Partly Cloudy
11:15 AM 42.8 °F 35.8 °F 30.2 °F 61% 29.96 in 10.0 mi North 13.8 mph 19.6 mph N/A   Clear
11:35 AM 42.8 °F 35.4 °F 28.4 °F 57% 29.96 in 10.0 mi North 15.0 mph 21.9 mph N/A   Clear
11:55 AM 44.6 °F 37.8 °F 26.6 °F 49% 29.95 in 10.0 mi North 15.0 mph 24.2 mph N/A   Clear
12:15 PM 44.6 °F 36.9 °F 26.6 °F 49% 29.94 in 10.0 mi North 18.4 mph - N/A   Partly Cloudy
12:35 PM 46.4 °F 39.0 °F 24.8 °F 43% 29.94 in 10.0 mi North 19.6 mph 26.5 mph N/A   Clear
12:55 PM 46.4 °F 40.4 °F 24.8 °F 43% 29.92 in 10.0 mi North 13.8 mph 23.0 mph N/A   Clear
1:15 PM 46.4 °F 39.5 °F 24.8 °F 43% 29.91 in 10.0 mi North 17.3 mph 24.2 mph N/A   Clear
1:35 PM 46.4 °F 40.1 °F 24.8 °F 43% 29.91 in 10.0 mi North 15.0 mph 18.4 mph N/A   Clear
1:55 PM 48.2 °F - 21.2 °F 34% 29.91 in 10.0 mi North 15.0 mph 21.9 mph N/A   Clear
2:15 PM 48.2 °F - 21.2 °F 34% 29.91 in 10.0 mi North 15.0 mph 21.9 mph N/A   Clear
2:35 PM 48.2 °F - 21.2 °F 34% 29.90 in 10.0 mi NW 17.3 mph 24.2 mph N/A   Clear
2:55 PM 48.2 °F - 19.4 °F 32% 29.90 in 10.0 mi North 15.0 mph 20.7 mph N/A   Partly Cloudy
3:15 PM 46.4 °F 40.1 °F 24.8 °F 43% 29.89 in 10.0 mi NW 15.0 mph 18.4 mph N/A   Scattered Clouds
3:35 PM 46.4 °F 40.4 °F 24.8 °F 43% 29.89 in 10.0 mi North 13.8 mph 23.0 mph N/A   Partly Cloudy
3:55 PM 48.2 °F - 21.2 °F 34% 29.90 in 10.0 mi NW 15.0 mph 18.4 mph N/A   Scattered Clouds
4:15 PM 46.4 °F 39.8 °F 21.2 °F 37% 29.91 in 10.0 mi NNW 16.1 mph 21.9 mph N/A   Mostly Cloudy
4:35 PM 44.6 °F 37.8 °F 21.2 °F 39% 29.93 in 10.0 mi NNW 15.0 mph 23.0 mph N/A   Overcast
4:55 PM 39.2 °F 29.6 °F 26.6 °F 61% 29.95 in 10.0 mi NNE 19.6 mph 26.5 mph N/A   Overcast
5:15 PM 35.6 °F 24.8 °F 28.4 °F 75% 29.95 in 10.0 mi NE 19.6 mph 25.3 mph N/A   Overcast
5:35 PM 37.4 °F 29.3 °F 26.6 °F 65% 29.94 in 10.0 mi East 12.7 mph - N/A   Mostly Cloudy
5:55 PM 37.4 °F 31.4 °F 26.6 °F 65% 29.94 in 10.0 mi ESE 8.1 mph - N/A   Mostly Cloudy
6:15 PM 37.4 °F 32.8 °F 24.8 °F 60% 29.95 in 10.0 mi SSE 5.8 mph - N/A   Overcast
6:35 PM 37.4 °F 32.1 °F 26.6 °F 65% 29.95 in 10.0 mi WSW 6.9 mph - N/A   Overcast
6:55 PM 37.4 °F 32.1 °F 28.4 °F 70% 29.95 in 10.0 mi SW 6.9 mph - N/A   Overcast
7:15 PM 35.6 °F 30.7 °F 28.4 °F 75% 29.95 in 10.0 mi WSW 5.8 mph - N/A   Overcast
7:35 PM 35.6 °F - 28.4 °F 75% 29.96 in 10.0 mi Calm Calm - N/A   Mostly Cloudy
7:55 PM 35.6 °F - 28.4 °F 75% 29.97 in 10.0 mi Calm Calm - N/A   Mostly Cloudy
8:15 PM 35.6 °F - 28.4 °F 75% 29.99 in 10.0 mi Calm Calm - N/A   Overcast
8:35 PM 35.6 °F - 28.4 °F 75% 29.99 in 10.0 mi Calm Calm - N/A   Mostly Cloudy
8:55 PM 35.6 °F 32.8 °F 28.4 °F 75% 29.99 in 10.0 mi WSW 3.5 mph - N/A   Overcast
9:15 PM 33.8 °F 29.6 °F 26.6 °F 75% 30.00 in 10.0 mi SSW 4.6 mph - N/A   Mostly Cloudy
9:35 PM 33.8 °F - 28.4 °F 81% 30.02 in 10.0 mi Calm Calm - N/A   Mostly Cloudy
9:55 PM 33.8 °F 29.6 °F 28.4 °F 81% 30.02 in 6.0 mi ENE 4.6 mph - N/A   Overcast
10:15 PM 32.0 °F 25.6 °F 28.4 °F 87% 30.02 in 10.0 mi ESE 6.9 mph - N/A   Scattered Clouds
10:35 PM 30.2 °F 24.3 °F 28.4 °F 93% 30.03 in 10.0 mi ESE 5.8 mph - N/A   Scattered Clouds
10:55 PM 30.2 °F 24.3 °F 28.4 °F 93% 30.04 in 10.0 mi ENE 5.8 mph - N/A   Mostly Cloudy
11:15 PM 30.2 °F 26.7 °F 26.6 °F 86% 30.04 in 10.0 mi ENE 3.5 mph - N/A   Scattered Clouds
11:35 PM 30.2 °F - 26.6 °F 86% 30.03 in 10.0 mi Calm Calm - N/A   Clear
11:55 PM 30.2 °F - 28.4 °F 93% 30.03 in 10.0 mi Calm Calm - N/A   Clear